As far as the east is from the west, so far hath he removed our transgressions from us.
Psalms 103:12 KJ
pause

Enter Zip Code:

Current conditions for: Simi Valley, CA, US - Location: 34.26  -118.75 on Tue, 20 Mar 2007 9:51 pm PDT:
cloud or sun
cloud or sun
cloud or sun

Currently:
Cloudy
Visibility: 1,609.0 miles
Temp: 53° F     Humidity: 86%
Wind: Calm
Feels like: 53 ° F
Pressure: 30.01 in and rising
Sunrise: 6:59 am  Sunset: 7:06 pm
Forecast for Tue:
Showers Early
64° F / 47° F
Forecast for Wed:
Partly Cloudy
67° F / 47° F



Data courtesy of Yahoo! Weather

Enter 4 Letter Airport ID:

Current Observation for KDFW :

2021/01/28 11:53
KDFW 281153Z 04004KT 10SM BKN300 M02/M04 A3057 RMK AO2 SLP354 T10171044 10011 21017 53010 $

Forecast for KDFW :

2021/01/28 12:22
TAF KDFW 281120Z 2812/2918 08005KT P6SM BKN250 
     FM281800 12004KT P6SM BKN250 
     FM291600 17011KT P6SM FEW250
GOES Pacific Coast Color Satellite View
GOES Pacific Coast Color Satellite View
GOES Hurricane Color Satellite View
GOES Hurricane Color Satellite View
  Movies and Other Links
(May take a while to load)
East Coast Movie
West Coast Movie
GOES East Full Disk
GOES West Full Disk
S Plains Radar View
Southern Plains Radar View
N Texas Radar View
Dallas Ft Worth Area View
Southern Rockies Radar View
North Texas - Oklahoma Radar View
CONUS Visible
CONUS Visible
CONUS IR
CONUS IR
CONUS Water Vapor
CONUS Water Vapor